Location: Trebic
(49.2170°N, 15.8830°E)
Time: 09:04:02
(UTC+02:00)

Transit 2A Rocket - Pass Details

Date: 26 July 2019
Orbit: 590 x 913 km, 66.7° (Epoch: 24 August)

Event Time Altitude Azimuth Distance (km) Brightness Sun altitude
Rises 09:03:00 0° 323° (NW) 3,272 7.9 34.1°
Reaches altitude 10° 09:06:20 10° 343° (NNW) 2,271 7.3 34.6°
Maximum altitude 09:09:43 17° 24° (NNE) 1,748 7.2 35.2°
Drops below altitude 10° 09:12:56 10° 67° (ENE) 2,127 8.2 35.7°
Sets 09:15:54 0° 87° (E) 2,979 9.0 36.1°
